Location: Copper Mountain Observatory
(34.1350°N, 116.3120°W)
Time: 01:36:11
(UTC-07:00)

Daily predictions for brighter satellites

Satellite Brightness Start Highest point End
(mag) Time Altitude Azimuth Time Altitude Azimuth Time Altitude Azimuth
Atlas Centaur 2 4.3 03:22:30 20° ESE 03:22:30 20° ESE 03:24:12 10° E
Cosmos 2263 Rocket 4.0 03:21:57 27° ENE 03:21:57 27° ENE 03:25:08 10° NE
CZ-3 R/B 3.9 03:49:52 40° SW 03:57:59 53° S 04:06:59 10° E
Okean O Rocket 2.7 04:19:48 10° NNE 04:23:54 41° E 04:25:09 33° SE
Cosmos 1975 3.4 04:30:09 10° N 04:34:13 58° E 04:36:04 29° SSE
Delta 2 Rocket 4.1 04:36:21 56° S 04:37:00 61° SSE 04:42:40 10° E
Tiangong 1 3.7 04:40:26 16° NE 04:40:26 16° NE 04:41:24 10° ENE
ADEOS II 1.9 04:34:10 10° N 04:39:22 66° WNW 04:39:38 65° W
CZ-3A R/B 3.5 04:41:18 25° SSE 04:41:34 25° SSE 04:47:15 10° ESE
Cosmos 2266 Rocket 3.9 04:36:52 10° NNW 04:43:14 69° W 04:49:33 10° S
ATLAS 3B R/B 2.9 04:38:53 27° SSW 04:43:18 78° ESE 04:50:32 10° NNE
DELTA 2 R/B (1) 4.2 04:42:44 36° NW 04:44:30 50° N 04:49:55 10° E
Meteor 1-18 Rocket 4.4 04:47:59 48° WSW 04:48:49 52° W 04:54:36 10° N
ASTEX 1 4.1 04:45:42 10° N 04:49:21 38° NW 04:49:21 38° NW
ATLAS CENTAUR R/B 4.3 04:50:45 10° SE 04:52:24 12° ESE 04:54:02 10° E
Cosmos 1844 Rocket 3.7 04:49:56 10° S 04:55:17 46° ESE 05:00:41 10° NE
Cosmos 1743 3.3 04:52:18 10° N 04:56:10 58° E 05:00:00 10° SSE
ASTRO E2 4.0 04:58:52 27° S 04:59:35 29° SSE 05:03:04 10° E
Cosmos 1943 3.3 04:54:19 10° NNW 04:59:47 49° WSW 05:05:12 10° S
PSLV R/B 3.6 04:58:08 10° N 05:02:11 50° WNW 05:02:27 49° W
CZ-4B R/B 3.2 04:59:24 10° N 05:02:51 43° NW 05:02:51 43° NW
Cosmos 2263 Rocket 3.1 05:03:42 28° WNW 05:03:56 28° WNW 05:08:49 10° N
Atlas Centaur 2 2.3 05:05:08 34° WSW 05:07:37 60° S 05:12:33 10° ESE
Cosmos 1544 Rocket 3.4 05:03:55 10° N 05:08:14 74° W 05:12:34 10° S
PAYLOAD B 4.2 05:06:35 10° N 05:12:02 63° WNW 05:17:26 10° SSW
Meteor PRIRODA 3.6 05:08:50 10° NNE 05:12:32 88° E 05:16:15 10° SSW
Cosmos 724 4.5 05:09:34 10° SSW 05:15:41 77° ESE 05:21:44 10° NNE
Meteor 1-4 Rocket 2.5 05:12:26 10° N 05:15:55 77° E 05:19:21 10° SSE
Cosmos 1455 Rocket 2.9 05:11:39 10° NNW 05:15:58 67° W 05:20:13 10° S
CZ-4B R/B 3.8 05:17:34 10° NNE 05:21:32 89° ESE 05:25:40 10° SSW
Skynet4D Del rocket 4.4 05:21:58 21° SW 05:25:20 40° S 05:30:24 10° ESE
Cosmos 468 Rocket 3.9 05:20:57 10° NNW 05:26:17 77° WSW 05:31:33 10° S
Cosmos 1486 Rocket 4.0 05:21:36 10° SSW 05:26:52 88° ESE 05:32:07 10° NNE
Okean-O 3.6 05:23:10 10° NNE 05:27:29 50° E 05:31:46 10° S
Meteor 1-13 Rocket 4.4 05:21:38 10° SSW 05:27:30 61° W 05:33:23 10° N
NOSS 3-2 (A) 3.7 05:24:49 10° SSW 05:30:37 71° ESE 05:36:57 10° NE
Cosmos 1536 Rocket 3.8 05:27:13 10° SSW 05:31:22 45° W 05:35:33 10° N
ATLAS 5 CENTAUR R/B 4.5 05:26:39 10° N 05:31:46 28° NE 05:37:14 10° ESE
GPS 2-05 Rocket1 3.7 05:36:17 23° WSW 05:37:15 27° SSW 05:39:55 10° SE
Cosmos 1844 3.7 05:34:08 10° SSW 05:39:43 86° ESE 05:45:23 10° NNE
IDEFIX/ARIANE 42P 4.5 05:35:17 10° NNE 05:40:01 33° E 05:44:43 10° SSE
CZ-4B R/B 3.7 05:40:23 10° N 05:45:07 35° WNW 05:49:54 10° SW
Cosmos 1763 Rocket 3.6 05:39:48 10° NNW 05:45:08 87° ENE 05:50:27 10° SSE
Cosmos 1271 Rocket 4.1 05:43:17 10° N 05:47:08 46° E 05:50:59 10° SSE
Meteor 2-4 Rocket 3.8 05:41:59 10° SSW 05:47:22 54° W 05:52:56 10° N
Okean 1-7 Rocket 3.7 05:49:54 10° S 05:54:23 85° E 05:58:57 10° N
Cosmos 1745 Rocket 4.0 05:48:24 10° N 05:54:46 79° W 06:01:03 10° S
USA 238 DEB 4.2 05:49:12 10° WSW 05:55:42 42° NW 06:02:16 10° NNE
USA 238 4.2 05:49:18 10° WSW 05:55:48 42° NW 06:02:24 10° NNE
Cosmos 1553 Rocket 4.2 05:50:36 10° SSW 05:56:29 47° W 06:02:20 10° N
GOES 2 Rocket 4.4 05:53:49 11° WSW 05:56:59 24° SSW 06:00:38 10° SE
Cosmos 371 Rocket 4.1 05:53:57 10° NW 05:58:08 29° W 06:02:17 10° SSW
Okean O Rocket 3.3 05:57:32 10° NW 05:59:53 14° WNW 06:02:14 10° W
NOAA 6 4.0 05:55:33 10° N 06:00:44 76° WNW 06:05:55 10° SSW
Cosmos 1025 Rocket 2.9 05:57:17 10° SSW 06:01:31 68° W 06:05:47 10° N
USA 116 3.6 05:58:23 10° S 06:01:32 40° W 06:04:32 10° NNW
CZ-2C R/B 4.2 05:57:34 10° S 06:01:57 41° W 06:06:27 10° NNW
EO 1 Del DPAF 3.4 06:05:03 10° S 06:08:44 48° W 06:12:27 10° NNW
Meteor 2-9 Rocket 4.4 06:04:29 10° NNW 06:09:40 45° W 06:14:57 10° SSW
Okean 2 3.5 06:07:23 10° SSW 06:11:23 55° W 06:15:24 10° N
Cosmos 389 Rocket 2.5 06:08:12 10° N 06:11:41 85° E 06:15:10 10° S
Centaur D-1AR AC-48 4.3 06:08:04 10° SW 06:11:54 15° S 06:14:25 10° SE
